Date String (YYYY-MM-DD hh:mm:ss) UTC,Instrument flags,Ambient pressure (hPa),Sample flow (lpm),Bypass flow (lpm),Sample temperature (°C),Ambient temperature (°C),ASC tube jacket temperature (°C),LED temperature (°C),Box temperature (°C),Sample RH (%),Span deviation,Mass concentration (μg/m³),Mass concentration (μg/m³),Mass concentration (μg/m³)
DateTimeUTC,F1_M11,P_M11,Q1_M11,Q2_M11,T1_M11,T2_M11,T3_M11,T4_M11,T5_M11,U1_M11,ZSPAN_M11,X2_M11,X0_M11,X1_M11
2023-03-08 13:00:00,,0826.7,5.01,0.00,22.6,21.3,00.0,31.3,24.3,16.6,-002.0,0011.84,0014.81,0011.41
2023-03-08 13:01:00,,0826.7,5.01,0.00,22.6,21.2,00.0,31.3,24.3,16.6,-001.8,0011.87,0014.98,0011.41
2023-03-08 13:02:00,,0826.7,5.00,0.00,22.6,21.1,00.0,31.3,24.3,16.6,-001.7,0011.87,0014.95,0011.40
2023-03-08 13:03:00,,0826.7,5.00,0.00,22.6,21.0,00.0,31.3,24.2,16.6,-001.6,0011.82,0015.52,0011.36
2023-03-08 13:04:00,,0826.7,5.00,0.00,22.6,20.9,00.0,31.3,24.2,16.7,-001.7,0011.83,0015.56,0011.34
2023-03-08 13:05:00,,0826.7,4.99,0.00,22.5,20.8,00.0,31.3,24.2,16.7,-001.7,0011.85,0016.16,0011.33
2023-03-08 13:06:00,,0826.8,5.00,0.00,22.5,20.8,00.0,31.3,24.2,16.7,-001.7,0011.82,0016.44,0011.30
2023-03-08 13:07:00,,0826.8,5.01,0.00,22.5,20.8,00.0,31.3,24.2,16.7,-002.1,0011.80,0016.47,0011.25
2023-03-08 13:08:00,,0826.8,5.02,0.00,22.5,20.7,00.0,31.2,24.2,16.8,-002.3,0011.76,0016.25,0011.23
2023-03-08 13:09:00,,0826.8,4.99,0.00,22.4,20.7,00.0,31.2,24.1,16.8,-002.4,0011.70,0016.11,0011.20
2023-03-08 13:10:00,,0826.8,5.00,0.00,22.4,20.6,00.0,31.2,24.0,16.8,-002.4,0011.63,0016.01,0011.15
2023-03-08 13:11:00,,0826.8,5.01,0.00,22.4,20.6,00.0,31.2,24.0,16.8,-002.5,0011.57,0015.89,0011.11
2023-03-08 13:12:00,,0826.8,4.99,0.00,22.4,20.6,00.0,31.2,24.0,16.8,-002.7,0011.53,0015.69,0011.09
2023-03-08 13:13:00,,0826.8,5.00,0.00,22.4,20.5,00.0,31.2,24.0,16.9,-002.9,0011.50,0015.59,0011.08
2023-03-08 13:14:00,,0826.8,5.00,0.00,22.4,20.8,00.0,31.2,24.1,16.9,-003.0,0011.47,0014.99,0011.07
2023-03-08 13:15:00,,0826.8,5.00,0.00,22.4,21.9,00.0,31.1,24.3,16.8,-002.9,0011.44,0014.85,0011.05
2023-03-08 13:16:00,,0826.8,5.00,0.00,22.6,22.9,00.0,31.2,24.5,16.8,-002.8,0011.37,0014.21,0011.01
2023-03-08 13:17:00,,0826.8,4.99,0.00,22.6,23.0,00.0,31.2,24.6,16.7,-003.0,0011.32,0013.86,0010.97
2023-03-08 13:18:00,,0826.7,5.02,0.00,22.7,22.5,00.0,31.2,24.5,16.6,-002.9,0011.30,0013.79,0010.98
2023-03-08 13:19:00,,0826.8,5.01,0.00,22.7,22.2,00.0,31.3,24.5,16.6,-002.9,0011.28,0013.77,0010.95
2023-03-08 13:20:00,,0826.8,4.99,0.00,22.7,21.9,00.0,31.3,24.5,16.6,-002.9,0011.31,0013.80,0010.97
2023-03-08 13:21:00,,0827.0,5.01,0.00,22.6,21.6,00.0,31.3,24.4,16.6,-002.9,0011.31,0013.76,0010.98
2023-03-08 13:22:00,,0827.0,4.99,0.00,22.6,21.4,00.0,31.3,24.4,16.6,-002.7,0011.30,0013.74,0010.98
2023-03-08 13:23:00,,0826.9,5.00,0.00,22.6,21.3,00.0,31.3,24.3,16.6,-002.7,0011.31,0013.79,0010.99
2023-03-08 13:24:00,,0827.1,5.00,0.00,22.6,21.2,00.0,31.3,24.3,16.6,-002.6,0011.32,0013.85,0010.99
2023-03-08 13:25:00,,0826.9,5.02,0.00,22.6,21.1,00.0,31.3,24.3,16.7,-002.5,0011.33,0014.22,0010.98
2023-03-08 13:26:00,,0826.9,4.98,0.00,22.6,21.0,00.0,31.3,24.3,16.7,-002.6,0011.32,0014.46,0010.98
2023-03-08 13:27:00,,0826.9,4.99,0.00,22.6,20.9,00.0,31.3,24.2,16.7,-002.7,0011.35,0014.74,0010.98
2023-03-08 13:28:00,,0826.9,5.00,0.00,22.5,20.9,00.0,31.3,24.2,16.7,-002.6,0011.39,0014.79,0011.00
2023-03-08 13:29:00,,0826.9,5.01,0.00,22.5,20.8,00.0,31.3,24.2,16.7,-002.5,0011.40,0014.83,0011.00
2023-03-08 13:30:00,,0826.9,5.01,0.00,22.5,20.8,00.0,31.3,24.2,16.7,-002.4,0011.41,0014.86,0011.00
2023-03-08 13:31:00,,0826.9,5.00,0.00,22.5,20.7,00.0,31.2,24.2,16.7,-002.3,0011.41,0014.96,0010.97
2023-03-08 13:32:00,,0826.9,5.00,0.00,22.5,20.7,00.0,31.2,24.2,16.7,-002.4,0011.43,0015.07,0010.97
2023-03-08 13:33:00,,0826.9,5.00,0.00,22.4,20.7,00.0,31.2,24.2,16.7,-002.6,0011.47,0015.16,0011.00
2023-03-08 13:34:00,,0827.0,4.99,0.00,22.4,20.6,00.0,31.2,24.1,16.7,-002.4,0011.45,0015.10,0010.99
2023-03-08 13:35:00,,0827.0,5.00,0.00,22.4,20.6,00.0,31.2,24.1,16.8,-002.4,0011.46,0015.16,0010.98
2023-03-08 13:36:00,,0827.0,5.00,0.00,22.4,20.6,00.0,31.2,24.1,16.8,-002.7,0011.44,0014.88,0010.96
2023-03-08 13:37:00,,0827.0,5.00,0.00,22.4,20.9,00.0,31.2,24.1,17.1,-002.6,0011.48,0014.68,0010.96
2023-03-08 13:38:00,,0827.0,5.01,0.00,22.5,22.0,00.0,31.2,24.4,18.0,-002.5,0011.49,0014.58,0010.96
2023-03-08 13:39:00,,0827.0,4.99,0.00,22.6,23.1,00.0,31.2,24.6,17.1,-002.6,0011.46,0014.60,0010.95
2023-03-08 13:40:00,,0827.1,4.98,0.00,22.7,23.1,00.0,31.2,24.6,16.8,-002.5,0011.46,0014.61,0010.95
2023-03-08 13:41:00,,0826.9,5.00,0.00,22.7,22.6,00.0,31.3,24.6,16.7,-002.4,0011.45,0014.58,0010.95
2023-03-08 13:42:00,,0826.9,5.01,0.00,22.7,22.2,00.0,31.3,24.5,16.6,-002.5,0011.44,0014.91,0010.94
2023-03-08 13:43:00,,0827.0,5.02,0.00,22.7,21.9,00.0,31.3,24.5,16.6,-002.4,0011.41,0015.36,0010.94
2023-03-08 13:44:00,,0827.1,5.01,0.00,22.7,21.7,00.0,31.3,24.4,16.6,-002.1,0011.39,0015.33,0010.93
2023-03-08 13:45:00,,0827.0,5.00,0.00,22.7,21.5,00.0,31.3,24.4,16.6,-002.1,0011.41,0015.65,0010.93
2023-03-08 13:46:00,,0827.0,5.01,0.00,22.6,21.4,00.0,31.3,24.4,16.6,-002.1,0011.39,0015.54,0010.94
2023-03-08 13:47:00,,0827.0,5.01,0.00,22.6,21.2,00.0,31.3,24.4,16.6,-002.1,0011.41,0015.44,0010.99
2023-03-08 13:48:00,,0827.0,5.01,0.00,22.6,21.1,00.0,31.3,24.3,16.6,-002.3,0011.43,0015.49,0011.03
2023-03-08 13:49:00,,0827.0,5.00,0.00,22.6,21.1,00.0,31.3,24.3,16.6,-002.3,0011.44,0015.39,0011.07
2023-03-08 13:50:00,,0827.0,5.01,0.00,22.6,21.0,00.0,31.3,24.3,16.7,-002.0,0011.50,0015.32,0011.12
2023-03-08 13:51:00,,0827.0,5.00,0.00,22.6,21.0,00.0,31.3,24.3,16.7,-001.9,0011.56,0015.41,0011.19
2023-03-08 13:52:00,,0827.0,5.00,0.00,22.6,20.9,00.0,31.3,24.3,16.7,-001.9,0011.61,0015.44,0011.24
2023-03-08 13:53:00,,0827.2,4.99,0.00,22.5,20.8,00.0,31.3,24.3,16.7,-001.8,0011.66,0015.24,0011.30
2023-03-08 13:54:00,,0827.4,5.00,0.00,22.5,20.8,00.0,31.3,24.2,16.8,-001.8,0011.69,0014.97,0011.32
2023-03-08 13:55:00,,0827.5,5.02,0.00,22.5,20.8,00.0,31.3,24.2,16.8,-001.7,0011.72,0016.12,0011.34
2023-03-08 13:56:00,,0827.1,5.00,0.00,22.5,20.7,00.0,31.3,24.2,16.8,-001.7,0011.75,0015.90,0011.37
2023-03-08 13:57:00,,0827.4,5.01,0.00,22.5,20.7,00.0,31.2,24.1,16.8,-001.5,0011.79,0015.89,0011.39
2023-03-08 13:58:00,,0827.2,5.00,0.00,22.4,20.7,00.0,31.2,24.1,16.9,-001.5,0011.83,0015.99,0011.40
2023-03-08 13:59:00,,0827.2,5.00,0.00,22.4,21.1,00.0,31.2,24.2,16.9,-001.6,0011.82,0015.94,0011.41
